GW4172 Weather Reports


time (UTC)temp
C
wind
direction
speed
KPH
gust
KPH
rain 1hr
cm
rain 24hr
cm
rain mn
cm
humidity
%
barometer
mb
20260906191659 22 258 3.2 3.2 0.00 0.00 0.00 77 1021.6
20260906191158 21 191 0.0 0.0 0.00 0.00 0.00 79 1022.1
20260906190652 22 166 1.6 3.2 0.00 0.00 0.00 78 1021.9
20260906190147 21 118 4.8 4.8 0.00 0.00 0.00 80 1021.9
20260906185646 22 131 3.2 3.2 0.00 0.00 0.00 78 1022.1
20260906185145 22 205 8.0 11.3 0.00 0.00 0.00 78 1022.2
20260906184640 22 186 6.4 8.0 0.00 0.00 0.00 76 1022.2
20260906184136 23 332 1.6 3.2 0.00 0.00 0.00 75 1022.2
20260906183631 22 265 1.6 1.6 0.00 0.00 0.00 76 1022.2
20260906183127 21 177 4.8 4.8 0.00 0.00 0.00 79 1022.4
20260906182621 21 266 3.2 4.8 0.00 0.00 0.00 78 1022.4
20260906182118 22 128 6.4 8.0 0.00 0.00 0.00 78 1022.6
20260906181618 22 115 4.8 4.8 0.00 0.00 0.00 79 1022.4
20260906181113 22 196 4.8 4.8 0.00 0.00 0.00 80 1022.6
20260906180609 22 80 1.6 1.6 0.00 0.00 0.00 78 1022.3
20260906180108 22 217 1.6 1.6 0.00 0.00 0.00 77 1022.7
20260906175608 21 156 6.4 8.0 0.00 0.00 0.00 79 1022.4
20260906175103 22 156 8.0 9.7 0.00 0.00 0.00 78 1022.5
20260906174600 22 157 4.8 8.0 0.00 0.00 0.00 77 1022.5
20260906174055 22 131 4.8 4.8 0.00 0.00 0.00 77 1022.5
20260906173549 21 193 3.2 4.8 0.00 0.00 0.00 80 1022.6
20260906173046 23 328 1.6 3.2 0.00 0.00 0.00 74 1022.8
20260906172540 22 134 4.8 4.8 0.00 0.00 0.00 75 1022.5
20260906172035 23 144 3.2 4.8 0.00 0.00 0.00 74 1022.7
20260906171530 22 195 4.8 4.8 0.00 0.00 0.00 76 1022.7
20260906171026 22 322 0.0 0.0 0.00 0.00 0.00 77 1022.8
20260906170521 21 182 4.8 4.8 0.00 0.00 0.00 81 1022.8
20260906170020 22 173 1.6 3.2 0.00 0.00 0.00 78 1023.1
20260906165517 21 37 1.6 1.6 0.00 0.00 0.00 80 1022.8
20260906165013 22 185 0.0 1.6 0.00 0.00 0.00 78 1022.9
20260906164512 21 179 6.4 8.0 0.00 0.00 0.00 79 1023.1
20260906164008 21 47 4.8 4.8 0.00 0.00 0.00 80 1022.8
20260906163503 21 151 4.8 8.0 0.00 0.00 0.00 79 1023.0
20260906163002 21 150 8.0 8.0 0.00 0.00 0.00 79 1023.0
20260906162500 21 118 6.4 8.0 0.00 0.00 0.00 76 1022.9
20260906161950 21 144 4.8 4.8 0.00 0.00 0.00 76 1022.9
20260906161449 22 130 0.0 1.6 0.00 0.00 0.00 75 1022.7
20260906160949 21 184 3.2 3.2 0.00 0.00 0.00 78 1022.5
20260906160442 22 182 3.2 3.2 0.00 0.00 0.00 76 1022.9
20260906155941 21 192 6.4 8.0 0.00 0.00 0.00 76 1022.8
20260906155439 21 169 1.6 3.2 0.00 0.00 0.00 78 1022.8
20260906154936 21 222 3.2 3.2 0.00 0.00 0.00 77 1022.9
20260906154431 21 191 4.8 8.0 0.00 0.00 0.00 78 1022.9
20260906153929 20 147 6.4 11.3 0.00 0.00 0.00 79 1022.8
20260906153428 21 176 4.8 8.0 0.00 0.00 0.00 79 1022.8
20260906152923 21 198 6.4 9.7 0.00 0.00 0.00 79 1022.6
20260906152418 21 356 1.6 3.2 0.00 0.00 0.00 80 1022.9
20260906151917 20 203 4.8 4.8 0.00 0.00 0.00 81 1022.6
20260906151413 21 210 4.8 4.8 0.00 0.00 0.00 80 1022.7
20260906150909 21 175 0.0 1.6 0.00 0.00 0.00 79 1022.6
20260906150404 21 115 4.8 4.8 0.00 0.00 0.00 79 1022.8
20260906145903 21 247 4.8 4.8 0.00 0.00 0.00 78 1022.8
20260906145356 21 293 0.0 3.2 0.00 0.00 0.00 79 1022.7
20260906144851 21 309 0.0 0.0 0.00 0.00 0.00 81 1022.9
20260906144346 21 267 0.0 0.0 0.00 0.00 0.00 80 1022.9
20260906143841 20 35 0.0 0.0 0.00 0.00 0.00 83 1022.9
20260906143337 20 267 0.0 0.0 0.00 0.00 0.00 82 1022.9
20260906142832 19 315 1.6 1.6 0.00 0.00 0.00 85 1022.6
20260906142326 19 296 0.0 0.0 0.00 0.00 0.00 86 1022.9
20260906141821 18 289 0.0 0.0 0.00 0.00 0.00 86 1022.9
20260906141316 18 304 0.0 0.0 0.00 0.00 0.00 88 1023.0
20260906140814 18 297 0.0 0.0 0.00 0.00 0.00 89 1022.9
20260906140310 18 310 0.0 0.0 0.00 0.00 0.00 86 1023.0
20260906135807 18 261 1.6 1.6 0.00 0.00 0.00 88 1023.0
20260906135305 17 329 0.0 1.6 0.00 0.00 0.00 91 1023.0
20260906134757 17 299 0.0 0.0 0.00 0.00 0.00 92 1022.9
20260906134252 17 283 0.0 1.6 0.00 0.00 0.00 92 1023.0
20260906133748 17 277 0.0 1.6 0.00 0.00 0.00 93 1023.0
20260906133244 16 292 0.0 0.0 0.00 0.00 0.00 94 1023.2
20260906132739 16 316 0.0 0.0 0.00 0.00 0.00 94 1023.0
20260906132234 16 291 0.0 0.0 0.00 0.00 0.00 96 1023.0
20260906131729 15 313 0.0 0.0 0.00 0.00 0.00 97 1023.1
20260906131224 15 287 0.0 0.0 0.00 0.00 0.00 99 1023.0
20260906130720 15 316 0.0 0.0 0.00 0.00 0.00 99 1023.2
20260906130214 14 295 0.0 0.0 0.00 0.00 0.00 99 1022.9
20260906125713 14 302 1.6 1.6 0.00 0.00 0.00 99 1023.1
20260906125211 13 300 0.0 0.0 0.00 0.00 0.00 99 1023.2
20260906124707 13 305 0.0 0.0 0.00 0.00 0.00 99 1023.1
20260906124202 13 310 0.0 0.0 0.00 0.00 0.00 99 1022.9
20260906123700 13 313 0.0 0.0 0.00 0.00 0.00 99 1022.8
20260906123156 13 307 0.0 0.0 0.00 0.00 0.00 99 1022.6
20260906122655 12 308 0.0 0.0 0.00 0.00 0.00 99 1022.7
20260906122151 12 297 0.0 0.0 0.00 0.00 0.00 99 1022.8
20260906121647 12 306 0.0 1.6 0.00 0.00 0.00 99 1022.4
20260906121143 12 313 1.6 1.6 0.00 0.00 0.00 99 1022.4
20260906120639 12 311 1.6 1.6 0.00 0.00 0.00 99 1022.4
20260906120136 12 314 0.0 1.6 0.00 0.00 0.00 99 1022.3
20260906115636 12 307 1.6 1.6 0.00 0.00 0.00 99 1022.6
20260906115132 12 303 0.0 1.6 0.00 0.00 0.00 99 1022.6
20260906114631 12 301 0.0 0.0 0.00 0.00 0.00 99 1022.3
20260906114126 12 313 0.0 0.0 0.00 0.00 0.00 99 1022.5
20260906113626 12 302 0.0 0.0 0.00 0.00 0.00 99 1022.3
20260906113121 12 304 0.0 0.0 0.00 0.00 0.00 99 1022.1
20260906112620 12 309 0.0 0.0 0.00 0.00 0.00 99 1022.4
20260906112118 12 313 0.0 0.0 0.00 0.00 0.00 99 1022.2
20260906111616 12 308 0.0 0.0 0.00 0.00 0.00 99 1022.0
20260906111111 12 313 0.0 0.0 0.00 0.00 0.00 99 1022.0
20260906110606 12 293 0.0 1.6 0.00 0.00 0.00 99 1021.7
20260906110106 12 307 0.0 0.0 0.00 0.00 0.00 99 1022.0
20260906105600 12 307 0.0 0.0 0.00 0.00 0.00 99 1022.2
20260906105056 12 305 0.0 0.0 0.00 0.00 0.00 99 1021.9
20260906104555 12 307 0.0 0.0 0.00 0.00 0.00 99 1022.0
20260906104049 12 302 0.0 0.0 0.00 0.00 0.00 99 1022.0
20260906103547 12 309 1.6 1.6 0.00 0.00 0.00 99 1021.8
20260906103043 12 292 1.6 1.6 0.00 0.00 0.00 99 1021.9
20260906102537 12 309 1.6 1.6 0.00 0.00 0.00 99 1021.8
20260906102032 12 314 1.6 1.6 0.00 0.00 0.00 99 1021.7
20260906101527 12 323 0.0 0.0 0.00 0.00 0.00 99 1021.7
20260906101022 12 311 0.0 0.0 0.00 0.00 0.00 99 1021.7
20260906100518 12 319 0.0 0.0 0.00 0.00 0.00 99 1021.4
20260906100013 12 314 0.0 0.0 0.00 0.00 0.00 99 1021.6
20260906095507 12 309 0.0 0.0 0.00 0.00 0.00 99 1021.4
20260906095003 12 310 0.0 0.0 0.00 0.00 0.00 99 1021.6
20260906094501 12 311 0.0 0.0 0.00 0.00 0.00 99 1021.5
20260906093958 13 315 0.0 0.0 0.00 0.00 0.00 99 1021.9
20260906093453 13 296 0.0 0.0 0.00 0.00 0.00 99 1021.5
20260906092948 13 319 1.6 1.6 0.00 0.00 0.00 99 1021.6
20260906092448 13 310 0.0 0.0 0.00 0.00 0.00 99 1021.6
20260906091943 13 315 0.0 0.0 0.00 0.00 0.00 99 1021.6
20260906091438 13 323 0.0 1.6 0.00 0.00 0.00 99 1021.6
20260906090935 13 311 0.0 0.0 0.00 0.00 0.00 99 1021.6
20260906090430 13 311 0.0 0.0 0.00 0.00 0.00 98 1021.5
20260906085924 13 344 1.6 3.2 0.00 0.00 0.00 99 1021.6
20260906085423 13 290 3.2 3.2 0.00 0.00 0.00 99 1021.7
20260906084923 13 300 0.0 0.0 0.00 0.00 0.00 99 1021.8
20260906084418 13 313 1.6 1.6 0.00 0.00 0.00 99 1021.7
20260906083917 13 311 0.0 0.0 0.00 0.00 0.00 99 1021.5
20260906083412 13 302 0.0 0.0 0.00 0.00 0.00 99 1021.9
20260906082912 13 336 0.0 0.0 0.00 0.00 0.00 99 1022.0
20260906082407 13 318 1.6 1.6 0.00 0.00 0.00 99 1021.8
20260906081903 13 316 1.6 1.6 0.00 0.00 0.00 99 1021.8
20260906081358 13 314 0.0 1.6 0.00 0.00 0.00 99 1021.9
20260906080854 13 306 0.0 0.0 0.00 0.00 0.00 99 1021.7
20260906080351 13 306 1.6 1.6 0.00 0.00 0.00 99 1021.7
20260906075850 13 317 1.6 1.6 0.00 0.00 0.00 99 1021.7
20260906075350 13 313 0.0 0.0 0.00 0.00 0.00 99 1021.9
20260906074845 13 311 0.0 0.0 0.00 0.00 0.00 99 1021.8
20260906074340 13 323 0.0 0.0 0.00 0.00 0.00 99 1021.6
20260906073839 13 308 0.0 0.0 0.00 0.00 0.00 99 1021.9
20260906073334 13 309 1.6 1.6 0.00 0.00 0.00 99 1021.8
20260906072831 13 320 0.0 0.0 0.00 0.00 0.00 99 1021.8
20260906072326 13 311 0.0 0.0 0.00 0.00 0.00 99 1021.7
20260906071822 13 323 1.6 1.6 0.00 0.00 0.00 99 1022.0
20260906071321 13 312 0.0 0.0 0.00 0.00 0.00 99 1021.8
20260906070818 13 319 1.6 1.6 0.00 0.00 0.00 99 1022.1
20260906070314 13 321 0.0 0.0 0.00 0.00 0.00 99 1022.1
20260906065813 13 312 0.0 0.0 0.00 0.00 0.00 99 1022.2
20260906065309 13 304 0.0 0.0 0.00 0.00 0.00 99 1022.4
20260906064804 13 296 0.0 0.0 0.00 0.00 0.00 99 1022.3
20260906064300 13 304 0.0 0.0 0.00 0.00 0.00 99 1022.3
20260906063755 13 304 0.0 0.0 0.00 0.00 0.00 99 1022.3
20260906063251 13 313 0.0 0.0 0.00 0.00 0.00 99 1022.0
20260906062746 13 304 0.0 0.0 0.00 0.00 0.00 99 1022.1
20260906062245 13 311 0.0 0.0 0.00 0.00 0.00 99 1022.3
20260906061741 13 308 0.0 0.0 0.00 0.00 0.00 99 1022.4
20260906061237 13 309 0.0 0.0 0.00 0.00 0.00 99 1022.4
20260906060732 13 313 0.0 0.0 0.00 0.00 0.00 99 1022.1
20260906060229 13 311 0.0 0.0 0.00 0.00 0.00 99 1022.2
20260906055725 13 311 0.0 0.0 0.00 0.00 0.00 99 1022.1
20260906055220 13 307 0.0 0.0 0.00 0.00 0.00 99 1022.1
20260906054716 13 306 0.0 0.0 0.00 0.00 0.00 99 1022.2
20260906054215 13 305 0.0 0.0 0.00 0.00 0.00 99 1021.8
20260906053712 13 309 0.0 1.6 0.00 0.00 0.00 99 1021.9
20260906053207 13 304 0.0 0.0 0.00 0.00 0.00 99 1022.1
20260906052702 13 310 0.0 0.0 0.00 0.00 0.00 99 1022.2
20260906052159 14 307 0.0 0.0 0.00 0.00 0.00 99 1021.9
20260906051655 14 305 0.0 0.0 0.00 0.00 0.00 99 1022.2
20260906051154 14 319 0.0 1.6 0.00 0.00 0.00 99 1021.9
20260906050650 14 309 0.0 0.0 0.00 0.00 0.00 99 1022.0
20260906050145 14 304 0.0 0.0 0.00 0.00 0.00 99 1022.2
20260906045643 14 303 0.0 0.0 0.00 0.00 0.00 99 1021.9
20260906045139 14 323 0.0 0.0 0.00 0.00 0.00 99 1022.0
20260906044635 14 302 0.0 0.0 0.00 0.00 0.00 99 1021.9
20260906044130 14 306 0.0 0.0 0.00 0.00 0.00 99 1021.9
20260906043626 14 307 0.0 0.0 0.00 0.00 0.00 99 1021.8
20260906043122 14 307 0.0 0.0 0.00 0.00 0.00 99 1021.9
20260906042621 14 300 0.0 0.0 0.00 0.00 0.00 99 1022.0
20260906042116 14 307 0.0 0.0 0.00 0.00 0.00 99 1021.9
20260906041612 14 308 0.0 0.0 0.00 0.00 0.00 99 1021.7
20260906041111 14 308 0.0 0.0 0.00 0.00 0.00 99 1021.6
20260906040607 15 307 0.0 0.0 0.00 0.00 0.00 99 1021.7
20260906035557 15 304 0.0 0.0 0.00 0.00 0.00 98 1021.6
20260906035053 15 305 0.0 0.0 0.00 0.00 0.00 98 1021.5
20260906034548 15 306 0.0 0.0 0.00 0.00 0.00 98 1021.5
20260906034043 15 311 0.0 0.0 0.00 0.00 0.00 98 1021.8
20260906033538 15 300 0.0 0.0 0.00 0.00 0.00 97 1021.7
20260906033033 15 305 0.0 0.0 0.00 0.00 0.00 98 1021.4
20260906032530 15 309 0.0 0.0 0.00 0.00 0.00 97 1021.5
20260906032030 15 303 0.0 0.0 0.00 0.00 0.00 97 1021.2
20260906031526 15 301 0.0 0.0 0.00 0.00 0.00 97 1021.0
20260906031021 15 307 0.0 0.0 0.00 0.00 0.00 97 1021.2
20260906030520 15 304 0.0 0.0 0.00 0.00 0.00 96 1021.3
20260906030020 15 302 0.0 0.0 0.00 0.00 0.00 96 1021.3
20260906025519 15 300 0.0 0.0 0.00 0.00 0.00 95 1021.3
20260906025018 15 306 0.0 0.0 0.00 0.00 0.00 95 1021.5
20260906024513 15 309 0.0 0.0 0.00 0.00 0.00 96 1021.3
20260906024008 15 310 0.0 1.6 0.00 0.00 0.00 96 1021.3
20260906023504 15 305 1.6 1.6 0.00 0.00 0.00 96 1021.3
20260906022959 15 302 0.0 0.0 0.00 0.00 0.00 96 1021.4
20260906022454 15 295 1.6 1.6 0.00 0.00 0.00 96 1021.3
20260906021949 15 295 0.0 1.6 0.00 0.00 0.00 95 1021.2
20260906021444 15 301 0.0 0.0 0.00 0.00 0.00 95 1021.3
20260906020944 15 296 0.0 0.0 0.00 0.00 0.00 95 1021.2
20260906020438 15 297 0.0 0.0 0.00 0.00 0.00 97 1021.0
20260906015932 15 298 0.0 0.0 0.00 0.00 0.00 97 1020.6
20260906015427 15 315 0.0 0.0 0.00 0.00 0.00 98 1021.1
20260906014926 15 298 0.0 0.0 0.00 0.00 0.00 98 1021.2
20260906014426 15 308 1.6 1.6 0.00 0.00 0.00 97 1021.0
20260906013922 15 306 1.6 1.6 0.00 0.00 0.00 98 1021.0
20260906013417 15 306 1.6 1.6 0.00 0.00 0.00 97 1020.9
20260906012913 15 302 0.0 0.0 0.00 0.00 0.00 97 1021.0
20260906012408 15 300 0.0 1.6 0.00 0.00 0.00 97 1021.0
20260906011907 15 311 0.0 1.6 0.00 0.00 0.00 97 1020.8
20260906011402 15 304 1.6 1.6 0.00 0.00 0.00 96 1020.9
20260906010858 15 310 1.6 1.6 0.00 0.00 0.00 97 1020.9
20260906010353 15 314 1.6 1.6 0.00 0.00 0.00 97 1020.7
20260906005849 15 296 0.0 1.6 0.00 0.00 0.00 97 1020.7
20260906005348 16 303 1.6 1.6 0.00 0.00 0.00 97 1020.7
20260906004847 16 303 1.6 1.6 0.00 0.00 0.00 96 1020.8
20260906004347 16 305 1.6 1.6 0.00 0.00 0.00 96 1020.7
20260906003842 16 298 0.0 1.6 0.00 0.00 0.00 95 1020.8
20260906003338 16 305 1.6 1.6 0.00 0.00 0.00 94 1020.7
20260906002833 16 301 0.0 1.6 0.00 0.00 0.00 94 1020.6
20260906002332 17 300 0.0 0.0 0.00 0.00 0.00 93 1020.6
20260906001828 17 302 0.0 0.0 0.00 0.00 0.00 93 1020.6
20260906001324 17 298 0.0 0.0 0.00 0.00 0.00 91 1020.8
20260906000819 17 296 0.0 0.0 0.00 0.00 0.00 89 1020.6
20260906000314 18 305 0.0 1.6 0.00 0.00 0.00 88 1020.7
20260905235814 18 302 0.0 0.0 0.00 0.00 0.00 86 1020.8
20260905235313 18 304 0.0 0.0 0.00 0.00 0.00 86 1020.4
20260905234809 18 286 0.0 0.0 0.00 0.00 0.00 84 1020.8
20260905234304 18 295 0.0 0.0 0.00 0.00 0.00 85 1020.7
20260905233800 19 303 0.0 0.0 0.00 0.00 0.00 84 1020.9
20260905233259 19 299 0.0 0.0 0.00 0.00 0.00 84 1020.7
20260905232758 19 287 0.0 0.0 0.00 0.00 0.00 83 1020.6
20260905232255 20 302 0.0 0.0 0.00 0.00 0.00 84 1020.7
20260905231750 20 288 0.0 0.0 0.00 0.00 0.00 81 1020.8
20260905231246 20 297 0.0 0.0 0.00 0.00 0.00 81 1020.8
20260905230743 20 299 0.0 0.0 0.00 0.00 0.00 80 1020.9
20260905230240 20 298 0.0 0.0 0.00 0.00 0.00 79 1021.2
20260905225739 20 261 0.0 0.0 0.00 0.00 0.00 77 1021.4
20260905225234 20 217 1.6 3.2 0.00 0.00 0.00 77 1021.1
20260905224733 20 301 0.0 0.0 0.00 0.00 0.00 77 1020.9
20260905224229 20 286 4.8 4.8 0.00 0.00 0.00 76 1021.1
20260905223725 20 159 3.2 3.2 0.00 0.00 0.00 76 1021.2
20260905223222 21 289 3.2 3.2 0.00 0.00 0.00 75 1021.2
20260905222717 21 303 0.0 0.0 0.00 0.00 0.00 76 1021.1
20260905222216 21 288 0.0 0.0 0.00 0.00 0.00 75 1021.1
20260905221712 21 282 0.0 1.6 0.00 0.00 0.00 76 1021.2
20260905221209 21 267 1.6 3.2 0.00 0.00 0.00 74 1021.1
20260905220705 21 244 3.2 3.2 0.00 0.00 0.00 74 1021.2
20260905220200 21 202 1.6 3.2 0.00 0.00 0.00 73 1021.2
20260905215659 21 205 4.8 4.8 0.00 0.00 0.00 73 1021.1
20260905215155 21 292 0.0 0.0 0.00 0.00 0.00 77 1021.2
20260905214651 21 291 0.0 0.0 0.00 0.00 0.00 73 1021.6
20260905214147 21 312 0.0 0.0 0.00 0.00 0.00 75 1021.5
20260905213642 21 216 3.2 3.2 0.00 0.00 0.00 74 1021.6
20260905213138 21 145 4.8 4.8 0.00 0.00 0.00 73 1021.4
20260905212633 21 293 0.0 1.6 0.00 0.00 0.00 75 1021.3
20260905212132 21 260 3.2 4.8 0.00 0.00 0.00 74 1021.3
20260905211626 21 138 4.8 4.8 0.00 0.00 0.00 73 1021.4
20260905211122 21 174 0.0 1.6 0.00 0.00 0.00 73 1021.3
20260905210618 21 281 0.0 0.0 0.00 0.00 0.00 73 1021.3
20260905210113 21 153 3.2 3.2 0.00 0.00 0.00 73 1021.3
20260905205612 21 186 1.6 3.2 0.00 0.00 0.00 73 1021.2
20260905205112 22 314 0.0 1.6 0.00 0.00 0.00 72 1021.0
20260905204606 22 31 3.2 8.0 0.00 0.00 0.00 73 1021.0
20260905204102 22 280 1.6 3.2 0.00 0.00 0.00 73 1021.3
20260905203602 21 286 1.6 3.2 0.00 0.00 0.00 73 1021.1
20260905203057 21 234 3.2 4.8 0.00 0.00 0.00 73 1021.3
20260905202552 21 300 0.0 0.0 0.00 0.00 0.00 73 1021.7
20260905202048 22 99 3.2 3.2 0.00 0.00 0.00 71 1021.6
20260905201543 22 336 0.0 0.0 0.00 0.00 0.00 71 1021.4
20260905201043 22 280 0.0 0.0 0.00 0.00 0.00 71 1021.4
20260905200538 22 190 3.2 3.2 0.00 0.00 0.00 72 1021.8
20260905200038 22 295 0.0 0.0 0.00 0.00 0.00 72 1021.7
20260905195532 22 200 3.2 3.2 0.00 0.00 0.00 72 1021.8
20260905195027 22 274 0.0 0.0 0.00 0.00 0.00 69 1021.8
20260905194527 22 167 4.8 4.8 0.00 0.00 0.00 71 1021.8
20260905194021 22 224 1.6 4.8 0.00 0.00 0.00 71 1022.1
20260905193516 21 136 4.8 4.8 0.00 0.00 0.00 72 1021.9
20260905193011 21 236 3.2 3.2 0.00 0.00 0.00 72 1022.2
20260905192506 22 205 4.8 4.8 0.00 0.00 0.00 72 1022.0
20260905192002 22 284 0.0 0.0 0.00 0.00 0.00 69 1022.0